EW9060 Weather Reports


time (UTC)temp
C
wind
direction
speed
KPH
gust
KPH
rain 1hr
cm
rain 24hr
cm
rain mn
cm
humidity
%
barometer
mb
20260901191507 22 203 3.2 11.3 0.00 0.00 0.00 49 1016.7
20260901190010 22 229 4.8 12.9 0.00 0.00 0.00 50 1016.8
20260901184503 22 177 4.8 11.3 0.00 0.00 0.00 50 1016.9
20260901183101 22 126 3.2 11.3 0.00 0.00 0.00 50 1016.9
20260901181602 22 162 3.2 11.3 0.00 0.00 0.00 52 1016.9
20260901180055 21 132 1.6 12.9 0.00 0.00 0.00 54 1016.9
20260901174550 20 154 0.0 14.5 0.00 0.00 0.00 58 1016.9
20260901173057 20 93 3.2 11.3 0.00 0.00 0.00 55 1016.8
20260901171557 20 198 1.6 9.7 0.00 0.00 0.00 61 1016.6
20260901170044 20 217 0.0 11.3 0.00 0.00 0.00 63 1016.6
20260901164540 19 111 0.0 11.3 0.00 0.00 0.00 65 1016.4
20260901163036 18 234 1.6 8.0 0.00 0.00 0.00 68 1016.5
20260901161531 17 217 0.0 11.3 0.00 0.00 0.00 71 1016.5
20260901160030 17 175 3.2 14.5 0.00 0.00 0.00 74 1016.3
20260901154523 16 154 1.6 12.9 0.00 0.00 0.00 76 1016.1
20260901153021 16 150 4.8 16.1 0.00 0.00 0.00 78 1016.0
20260901151529 15 179 1.6 11.3 0.00 0.00 0.00 79 1015.7
20260901150020 15 138 0.0 8.0 0.00 0.00 0.00 81 1015.5
20260901144519 15 134 3.2 11.3 0.00 0.00 0.00 82 1015.4
20260901143012 14 127 3.2 12.9 0.00 0.00 0.00 82 1015.2
20260901141509 14 119 3.2 12.9 0.00 0.00 0.00 83 1015.0
20260901140006 13 162 0.0 14.5 0.00 0.00 0.00 84 1014.7
20260901134504 13 133 1.6 8.0 0.00 0.00 0.00 85 1014.3
20260901133001 14 133 1.6 11.3 0.00 0.00 0.00 84 1014.3
20260901131603 14 155 1.6 12.9 0.00 0.00 0.00 84 1014.2
20260901130058 14 162 1.6 8.0 0.00 0.00 0.00 83 1014.1
20260901124556 14 147 3.2 9.7 0.00 0.00 0.00 83 1013.8
20260901123117 14 160 0.0 8.0 0.00 0.00 0.00 82 1013.7
20260901121605 14 136 0.0 8.0 0.00 0.00 0.00 82 1013.8
20260901120056 15 132 3.2 12.9 0.00 0.00 0.00 81 1013.8
20260901114550 15 187 1.6 9.7 0.00 0.00 0.00 81 1013.7
20260901113056 15 189 3.2 12.9 0.00 0.00 0.00 80 1013.5
20260901111550 15 150 6.4 16.1 0.00 0.00 0.00 80 1013.4
20260901110046 15 135 4.8 14.5 0.00 0.00 0.00 79 1013.4
20260901104555 15 155 6.4 17.7 0.00 0.00 0.00 78 1013.4
20260901103042 15 144 4.8 16.1 0.00 0.00 0.00 78 1013.3
20260901101541 15 164 4.8 14.5 0.00 0.00 0.00 77 1013.2
20260901100055 15 160 4.8 16.1 0.00 0.00 0.00 77 1013.2
20260901094539 15 130 4.8 14.5 0.00 0.00 0.00 78 1013.3
20260901093037 15 150 8.0 17.7 0.00 0.00 0.00 78 1013.2
20260901091538 15 157 8.0 17.7 0.00 0.00 0.00 78 1013.2
20260901090039 15 107 1.6 17.7 0.00 0.00 0.00 77 1013.2
20260901084531 15 144 6.4 16.1 0.00 0.00 0.00 77 1013.3
20260901083029 15 112 4.8 16.1 0.00 0.00 0.00 77 1013.4
20260901081526 15 115 6.4 19.3 0.00 0.00 0.00 77 1013.3
20260901080024 16 136 1.6 20.9 0.00 0.00 0.00 77 1013.3
20260901074521 16 161 6.4 24.1 0.00 0.00 0.00 78 1013.1
20260901073025 16 175 9.7 22.5 0.00 0.00 0.00 77 1012.9
20260901071525 16 154 6.4 27.4 0.00 0.00 0.00 77 1012.9
20260901070016 16 202 8.0 17.7 0.00 0.00 0.00 76 1012.8
20260901064512 16 198 3.2 24.1 0.00 0.00 0.00 75 1012.8
20260901063020 16 167 6.4 19.3 0.00 0.00 0.00 75 1012.8
20260901061511 16 155 6.4 25.7 0.00 0.00 0.00 75 1012.8
20260901060014 16 158 6.4 22.5 0.00 0.00 0.00 74 1012.7
20260901054509 16 143 4.8 25.7 0.00 0.00 0.00 74 1012.7
20260901053009 16 172 9.7 24.1 0.00 0.00 0.00 73 1012.8
20260901051508 16 159 6.4 20.9 0.00 0.00 0.00 73 1012.7
20260901050008 16 197 8.0 27.4 0.00 0.00 0.00 73 1012.6
20260901044508 16 157 9.7 29.0 0.00 0.00 0.00 72 1012.6
20260901043005 16 173 8.0 24.1 0.00 0.00 0.00 72 1012.5
20260901041505 17 153 9.7 30.6 0.00 0.00 0.00 72 1012.4
20260901040012 17 150 8.0 25.7 0.00 0.00 0.00 71 1012.2
20260901034504 17 197 6.4 20.9 0.00 0.00 0.00 70 1012.0
20260901033003 17 138 9.7 29.0 0.00 0.00 0.00 69 1011.8
20260901031504 17 169 9.7 24.1 0.00 0.00 0.00 68 1011.7
20260901030003 18 269 3.2 19.3 0.00 0.00 0.00 67 1011.5
20260901024501 18 155 9.7 30.6 0.00 0.00 0.00 65 1011.4
20260901023000 19 153 4.8 24.1 0.00 0.00 0.00 64 1011.3
20260901021600 20 11 4.8 20.9 0.00 0.00 0.00 62 1011.3
20260901014602 21 49 12.9 29.0 0.00 0.00 0.00 58 1011.3
20260901013059 22 16 8.0 22.5 0.00 0.00 0.00 55 1011.2
20260901011605 22 16 11.3 35.4 0.00 0.00 0.00 51 1011.2
20260901010058 23 249 4.8 25.7 0.00 0.00 0.00 49 1011.1
20260901004603 23 176 9.7 22.5 0.00 0.00 0.00 49 1011.1
20260901003100 24 173 12.9 25.7 0.00 0.00 0.00 49 1011.2
20260901001555 25 190 8.0 24.1 0.00 0.00 0.00 48 1011.2
20260901000055 25 149 6.4 19.3 0.00 0.00 0.00 49 1011.1
20260831234554 25 92 6.4 25.7 0.00 0.00 0.00 49 1011.3
20260831233054 25 134 6.4 25.7 0.00 0.00 0.00 49 1011.4
20260831231559 25 202 8.0 20.9 0.00 0.00 0.00 48 1011.5
20260831230055 25 125 4.8 19.3 0.00 0.00 0.00 47 1011.6
20260831224552 25 146 8.0 19.3 0.00 0.00 0.00 46 1011.8
20260831223052 25 198 8.0 25.7 0.00 0.00 0.00 46 1011.9
20260831221551 25 271 8.0 27.4 0.00 0.00 0.00 46 1012.2
20260831220051 25 205 3.2 22.5 0.00 0.00 0.00 46 1012.3
20260831214617 25 157 4.8 19.3 0.00 0.00 0.00 47 1012.4
20260831213046 24 146 9.7 25.7 0.00 0.00 0.00 47 1012.5
20260831211546 25 133 4.8 22.5 0.00 0.00 0.00 49 1012.6
20260831210044 25 171 3.2 24.1 0.00 0.00 0.00 48 1012.7
20260831204540 24 92 4.8 17.7 0.00 0.00 0.00 50 1012.8
20260831203036 23 46 4.8 20.9 0.00 0.00 0.00 52 1012.8
20260831201538 22 46 6.4 24.1 0.00 0.00 0.00 53 1012.9
20260831200040 22 36 4.8 16.1 0.00 0.00 0.00 55 1013.1
20260831194527 22 17 8.0 20.9 0.00 0.00 0.00 56 1013.2
20260831193033 21 15 6.4 20.9 0.00 0.00 0.00 56 1013.6